TimeCET,TemperatureF,Dew PointF,Humidity,Sea Level PressureIn,VisibilityMPH,Wind Direction,Wind SpeedMPH,Gust SpeedMPH,PrecipitationIn,Events,Conditions,WindDirDegrees,DateUTC
12:00 AM,33.8,26.6,75,30.15,6.2,Variable,1.2,-,N/A,,Mostly Cloudy,0,2013-03-03 23:00:00
12:30 AM,32.0,26.6,80,30.15,6.2,Variable,1.2,-,N/A,,Mostly Cloudy,0,2013-03-03 23:30:00
1:00 AM,33,25,64,30.21,12,,2.2,,,,Mostly Cloudy,,2013-03-04 00:00:00
1:00 AM,33.8,26.6,75,30.15,6.2,Variable,1.2,-,N/A,,Mostly Cloudy,0,2013-03-04 00:00:00
1:30 AM,33.8,26.6,75,30.15,6.2,NE,3.5,-,N/A,,Mostly Cloudy,50,2013-03-04 00:30:00
2:00 AM,33.8,26.6,75,30.15,6.2,NE,4.6,-,N/A,,Overcast,40,2013-03-04 01:00:00
2:30 AM,33.8,26.6,75,30.15,6.2,NNE,4.6,-,N/A,,Overcast,30,2013-03-04 01:30:00
3:00 AM,33.8,26.6,75,30.15,6.2,NE,4.6,-,N/A,,Mostly Cloudy,40,2013-03-04 02:00:00
3:30 AM,32.0,28.4,87,30.18,6.2,NE,4.6,-,N/A,,Mostly Cloudy,40,2013-03-04 02:30:00
4:00 AM,30.2,24.8,80,30.18,6.2,NNE,4.6,-,N/A,,Scattered Clouds,30,2013-03-04 03:00:00
4:30 AM,32.0,26.6,80,30.18,-9999.0,ENE,2.3,-,N/A,,Clear,60,2013-03-04 03:30:00
5:00 AM,30.2,26.6,86,30.18,-9999.0,Variable,2.3,-,N/A,,Clear,0,2013-03-04 04:00:00
5:30 AM,30.2,26.6,86,30.18,-9999.0,Variable,2.3,-,N/A,,Clear,0,2013-03-04 04:30:00
6:00 AM,28.4,24.8,86,30.21,-9999.0,SE,3.5,-,N/A,,Clear,130,2013-03-04 05:00:00
6:30 AM,28.4,26.6,93,30.21,-9999.0,SE,3.5,-,N/A,,Clear,130,2013-03-04 05:30:00
7:00 AM,28,26,86,30.29,9,,2.2,,,,Scattered Clouds,,2013-03-04 06:00:00
7:00 AM,28.4,26.6,93,30.21,-9999.0,Variable,2.3,-,N/A,,Clear,0,2013-03-04 06:00:00
7:30 AM,30.2,28.4,93,30.24,-9999.0,Variable,1.2,-,N/A,,Clear,0,2013-03-04 06:30:00
8:00 AM,33.8,28.4,81,30.24,-9999.0,Calm,Calm,-,N/A,,Clear,0,2013-03-04 07:00:00
8:30 AM,35.6,28.4,75,30.27,6.2,Variable,2.3,-,N/A,,Partly Cloudy,0,2013-03-04 07:30:00
9:00 AM,35.6,26.6,70,30.27,6.2,Variable,2.3,-,N/A,,Partly Cloudy,0,2013-03-04 08:00:00
9:30 AM,35.6,26.6,70,30.27,6.2,NE,3.5,-,N/A,,Partly Cloudy,50,2013-03-04 08:30:00
10:00 AM,37.4,24.8,60,30.27,6.2,ENE,4.6,-,N/A,,Partly Cloudy,60,2013-03-04 09:00:00
10:30 AM,37.4,26.6,65,30.27,6.2,Variable,3.5,-,N/A,,Partly Cloudy,0,2013-03-04 09:30:00
11:00 AM,37.4,24.8,60,30.27,6.2,ENE,3.5,-,N/A,,Partly Cloudy,60,2013-03-04 10:00:00
11:30 AM,39.2,26.6,61,30.27,6.2,ENE,6.9,-,N/A,,Partly Cloudy,60,2013-03-04 10:30:00
12:00 PM,39.2,24.8,56,30.27,6.2,NNE,4.6,-,N/A,,Partly Cloudy,30,2013-03-04 11:00:00
12:30 PM,41.0,24.8,53,30.27,-9999.0,ENE,5.8,-,N/A,,Clear,60,2013-03-04 11:30:00
1:00 PM,41,24,38,30.31,16,,2.2,,,,Scattered Clouds,,2013-03-04 12:00:00
1:00 PM,41.0,24.8,53,30.27,-9999.0,North,5.8,-,N/A,,Clear,10,2013-03-04 12:00:00
1:30 PM,42.8,24.8,49,30.27,-9999.0,Variable,2.3,-,N/A,,Clear,0,2013-03-04 12:30:00
2:00 PM,42.8,24.8,49,30.27,-9999.0,Variable,2.3,-,N/A,,Clear,0,2013-03-04 13:00:00
2:30 PM,42.8,23.0,46,30.24,-9999.0,Variable,4.6,-,N/A,,Clear,0,2013-03-04 13:30:00
3:00 PM,42.8,23.0,46,30.24,-9999.0,Variable,4.6,-,N/A,,Clear,0,2013-03-04 14:00:00
3:30 PM,44.6,23.0,43,30.24,-9999.0,NNE,5.8,-,N/A,,Clear,30,2013-03-04 14:30:00
4:00 PM,44.6,19.4,37,30.24,-9999.0,ENE,5.8,-,N/A,,Clear,60,2013-03-04 15:00:00
4:30 PM,42.8,19.4,39,30.24,-9999.0,NE,6.9,-,N/A,,Clear,40,2013-03-04 15:30:00
5:00 PM,42.8,21.2,42,30.24,-9999.0,ENE,8.1,-,N/A,,Clear,60,2013-03-04 16:00:00
5:30 PM,41.0,15.8,36,30.24,-9999.0,ENE,4.6,-,N/A,,Clear,60,2013-03-04 16:30:00
6:00 PM,41.0,15.8,36,30.24,-9999.0,ENE,3.5,-,N/A,,Clear,70,2013-03-04 17:00:00
6:30 PM,39.2,15.8,39,30.24,-9999.0,ENE,3.5,-,N/A,,Clear,70,2013-03-04 17:30:00
7:00 PM,34,21,47,30.31,16,NNE,2.2,,,,,30,2013-03-04 18:00:00
7:00 PM,33.8,21.2,60,30.24,-9999.0,NNE,2.3,-,N/A,,Clear,30,2013-03-04 18:00:00
7:30 PM,33.8,19.4,56,30.24,-9999.0,North,2.3,-,N/A,,Clear,10,2013-03-04 18:30:00
8:00 PM,33.8,17.6,52,30.24,-9999.0,Variable,1.2,-,N/A,,Clear,0,2013-03-04 19:00:00
8:30 PM,32.0,19.4,60,30.24,-9999.0,Variable,1.2,-,N/A,,Clear,0,2013-03-04 19:30:00
9:00 PM,30.2,21.2,69,30.24,-9999.0,Variable,2.3,-,N/A,,Clear,0,2013-03-04 20:00:00
9:30 PM,28.4,23.0,80,30.24,-9999.0,SSW,4.6,-,N/A,,Clear,210,2013-03-04 20:30:00
10:00 PM,28.4,23.0,80,30.27,-9999.0,SW,4.6,-,N/A,,Clear,220,2013-03-04 21:00:00
10:30 PM,30.2,24.8,80,30.27,-9999.0,SSW,4.6,-,N/A,,Clear,210,2013-03-04 21:30:00
11:00 PM,30.2,24.8,80,30.27,-9999.0,SSW,4.6,-,N/A,,Clear,210,2013-03-04 22:00:00
11:30 PM,28.4,23.0,80,30.27,-9999.0,SW,6.9,-,N/A,,Clear,220,2013-03-04 22:30:00